Weather History for KMRH - April, 2013

Change the Weather History Date:

Sunday, April 7, 2013

  Actual Average Record
Temperature  
Mean Temperature 55 °F -  
Max Temperature 68 °F 68 °F 84 °F (1978)
Min Temperature 44 °F 46 °F 28 °F (1982)
Degree Days  
Heating Degree Days 10    
Growing Degree Days 5 (Base 50)    
Moisture  
Dew Point 48 °F    
Average Humidity 74    
Maximum Humidity 93    
Minimum Humidity 54    
Precipitation  
Precipitation 0.00 in - - ()
Sea Level Pressure  
Sea Level Pressure 30.24 in    
Wind  
Wind Speed 6 mph (ESE)    
Max Wind Speed 10 mph    
Max Gust Speed -    
Visibility 10 miles    
Events      
Averages and records for this station are not official NWS values.
T = Trace of Precipitation, MM = Missing Value Source: NWS Daily Summary

Daily Weather History Graph

Daily Weather History Graph

Search for Another Location

Airport or City:

Trip Planner

Search our weather history database for the weather conditions in past years. The results will help you decide how hot, cold, wet, or windy it might be!

Date:

Astronomy

Apr. 07, 2013 Rise Set
Actual Time 6:45 AM EDT 7:32 PM EDT
Civil Twilight 6:19 AM EDT 7:58 PM EDT
Nautical Twilight 5:49 AM EDT 8:28 PM EDT
Astronomical Twilight 5:18 AM EDT 8:59 PM EDT
Moon 4:55 AM EDT (4/7) 5:07 PM EDT (4/7)
Length of Visible Light 13h 38m
Length of Day
12h 47m
Waning Crescent, 8% of the Moon is Illuminated
Apr 7
Waning Crescent
Apr 10
New
Apr 18
First Quarter
Apr 25
Full
May 2
Last Quarter

Hourly Weather History & Observations

Time (EDT) Temp. Windchill Dew Point Humidity Pressure Visibility Wind Dir Wind Speed Gust Speed Precip Events Conditions
12:58 AM 45.0 °F 42.6 °F 41.0 °F 86% 30.28 in 10.0 mi North 4.6 mph - N/A   Clear
1:58 AM 44.1 °F 42.5 °F 41.0 °F 89% 30.26 in 10.0 mi NE 3.5 mph - N/A   Clear
2:58 AM 45.0 °F 41.8 °F 42.1 °F 90% 30.24 in 10.0 mi NE 5.8 mph - N/A   Clear
3:58 AM 45.0 °F 42.6 °F 43.0 °F 93% 30.24 in 10.0 mi NE 4.6 mph - N/A   Clear
4:58 AM 46.0 °F 43.9 °F 43.0 °F 89% 30.24 in 10.0 mi NE 4.6 mph - N/A   Clear
5:58 AM 45.0 °F 42.6 °F 43.0 °F 93% 30.24 in 10.0 mi NE 4.6 mph - N/A   Clear
6:58 AM 46.0 °F 43.9 °F 44.1 °F 93% 30.27 in 8.0 mi NE 4.6 mph - N/A   Clear
7:58 AM 48.9 °F - 46.9 °F 93% 30.27 in 10.0 mi NE 4.6 mph - N/A   Clear
8:58 AM 55.0 °F - 48.9 °F 80% 30.27 in 10.0 mi ENE 5.8 mph - N/A   Clear
9:58 AM 61.0 °F - 48.9 °F 64% 30.28 in 10.0 mi ENE 5.8 mph - N/A   Clear
10:58 AM 64.0 °F - 48.9 °F 58% 30.29 in 10.0 mi NE 4.6 mph - N/A   Clear
11:58 AM 66.0 °F - 50.0 °F 56% 30.28 in 10.0 mi SE 4.6 mph - N/A   Clear
12:58 PM 66.9 °F - 51.1 °F 57% 30.26 in 10.0 mi SSE 6.9 mph - N/A   Clear
1:58 PM 66.9 °F - 50.0 °F 54% 30.24 in 10.0 mi South 9.2 mph - N/A   Clear
2:58 PM 66.9 °F - 50.0 °F 54% 30.22 in 10.0 mi SSE 9.2 mph - N/A   Clear
3:58 PM 66.9 °F - 53.1 °F 61% 30.20 in 10.0 mi South 10.4 mph - N/A   Clear
4:58 PM 66.0 °F - 52.0 °F 60% 30.19 in 10.0 mi South 9.2 mph - N/A   Clear
5:58 PM 64.0 °F - 52.0 °F 65% 30.19 in 10.0 mi South 8.1 mph - N/A   Clear
6:58 PM 62.1 °F - 52.0 °F 70% 30.19 in 10.0 mi South 9.2 mph - N/A   Clear
7:58 PM 61.0 °F - 51.1 °F 70% 30.18 in 10.0 mi South 9.2 mph - N/A   Clear
8:58 PM 59.0 °F - 52.0 °F 78% 30.20 in 10.0 mi South 5.8 mph - N/A   Clear
9:58 PM 61.0 °F - 52.0 °F 72% 30.21 in 10.0 mi South 8.1 mph - N/A   Clear
10:58 PM 60.1 °F - 53.1 °F 78% 30.21 in 10.0 mi South 9.2 mph - N/A   Clear
11:58 PM 60.1 °F - 53.1 °F 78% 30.20 in 10.0 mi South 9.2 mph - N/A   Clear